Terminal Aerodrome Forecast
Issued by NWS Albuquerque, NM

Home | Current Version | Previous Version | Text Only | Print | Product List | Glossary On
Versions: 1 2 3 4 5 6 7 8 9 10 11 12 13 14 15 16 17 18 19 20 21 22 23
000
FTUS45 KABQ 280520
TAFABQ
TAF
KABQ 280520Z 2806/2906 16006KT P6SM SKC
     FM281500 20006KT P6SM SKC
     FM281700 25010KT P6SM SKC
     FM282000 26012G20KT P6SM SKC=

USA.gov is the U.S. government's official web portal to all federal, state and local government web resources and services.